Location: Oberwangen
(47.4286°N, 8.9679°E)
Time: 07:01:26
(UTC+00:00)

Terra - Pass Details

Date: 20 June 2021
Orbit: 701 x 703 km, 98.2° (Epoch: 28 July)

Event Time Altitude Azimuth Distance (km) Brightness Sun altitude
Exits shadow 22:19:54 13° 221° (SW) 1,982 3.8 -17.6°
Maximum altitude 22:22:59 23° 267° (W) 1,497 3.6 -17.7°
Drops below altitude 10° 22:26:44 10° 319° (NW) 2,181 5.3 -17.9°
Sets 22:29:27 0° 335° (NNW) 3,105 6.7 -18.0°
